Kingman, Arizona, United States (86401)
Lat: 35.19N, Lon: 114.05W
Wx Zone: AZZ003
Local Info
Past Weather Observations for Friday, May 22, 2015

NOTE: This archive is for the closest National Weather Service station to Kingman. Information may differ from the station used for current weather conditions.

Click here for Long-term Archive

Time Weather Temperature Dewpoint Humidity Pressure Winds Precip Visibility
23:51
Clear
48°F / 9°C 39°F / 4°C 71% 29.98 in
(1015 mb)
SE 10.4 mph
(SE 17 kph)
-
22:51
Clear
50°F / 10°C 39°F / 4°C 67% 29.98 in
(1015 mb)
SE 10.4 mph
(SE 17 kph)
-
21:51
Partly Cloudy
52°F / 11°C 39°F / 4°C 62% 29.98 in
(1015 mb)
ESE 6.9 mph
(ESE 11 kph)
-
20:51
Overcast
54°F / 12°C 43°F / 6°C 67% 29.95 in
(1014 mb)
ENE 4.6 mph
(ENE 7 kph)
-
19:51
Clear
54°F / 12°C 39°F / 4°C 58% 29.95 in
(1014 mb)
SSE 6.9 mph
(SSE 11 kph)
-
18:51
Mostly Cloudy
59°F / 15°C 36°F / 2°C 42% 29.95 in
(1014 mb)
SW 11.5 mph
(SW 19 kph)
-
17:51
Mostly Cloudy
63°F / 17°C 36°F / 2°C 37% 29.92 in
(1013 mb)
SSE 10.4 mph
(SSE 17 kph)
0.00 in
(0.00 mm)
16:51
Overcast
Light Rain
57°F / 14°C 45°F / 7°C 63% 29.92 in
(1013 mb)
S 10.4 mph
(S 17 kph)
0.01 in
(0.25 mm)
15:51
Mostly Cloudy
Light Rain
57°F / 14°C 43°F / 6°C 59% 29.92 in
(1013 mb)
S 15 mph
(S 24 kph)
0.00 in
(0.00 mm)
10SM
14:51
Clear
66°F / 19°C 36°F / 2°C 32% 29.89 in
(1012 mb)
SW 20.7 mph
(SW 33 kph)
- 10SM
13:51
Partly Cloudy
61°F / 16°C 36°F / 2°C 39% 29.89 in
(1012 mb)
SW 23 mph
(SW 37 kph)
0.00 in
(0.00 mm)
10SM
12:51
Overcast
Light Rain
57°F / 14°C 39°F / 4°C 51% 29.89 in
(1012 mb)
SSW 19.6 mph
(SSW 32 kph)
0.08 in
(2.03 mm)
10SM
12:30
Overcast
Light Rain
55°F / 13°C 43°F / 6°C 63% 29.92 in
(1013 mb)
SSW 15 mph
(SSW 24 kph)
0.06 in
(1.52 mm)
6SM
12:15
Overcast
Thunder Storms
57°F / 14°C 43°F / 6°C 59% 29.92 in
(1013 mb)
SW 15 mph
(SW 24 kph)
0.03 in
(0.76 mm)
6SM
11:51
Overcast
Light Rain
57°F / 14°C 43°F / 6°C 59% 29.92 in
(1013 mb)
SW 12.7 mph
(SW 20 kph)
0.01 in
(0.25 mm)
10SM
10:51
Overcast
63°F / 17°C 34°F / 1°C 34% 29.92 in
(1013 mb)
SW 16.1 mph
(SW 26 kph)
- 10SM
09:51
Mostly Cloudy
64°F / 18°C 30°F / -1°C 28% 29.92 in
(1013 mb)
SSW 16.1 mph
(SSW 26 kph)
- 10SM
08:51
Overcast
63°F / 17°C 28°F / -2°C 27% 29.92 in
(1013 mb)
SW 12.7 mph
(SW 20 kph)
- 10SM
07:51
Mostly Cloudy
63°F / 17°C 30°F / -1°C 30% 29.92 in
(1013 mb)
SW 5.8 mph
(SW 9 kph)
- 10SM
06:51
Mostly Cloudy
59°F / 15°C 32°F / 0°C 36% 29.92 in
(1013 mb)
SE 6.9 mph
(SE 11 kph)
- 10SM
05:51
Partly Cloudy
55°F / 13°C 32°F / 0°C 41% 29.89 in
(1012 mb)
SE 10.4 mph
(SE 17 kph)
- 10SM
04:51
Clear
52°F / 11°C 30°F / -1°C 44% 29.89 in
(1012 mb)
ESE 9.2 mph
(ESE 15 kph)
- 10SM
03:51
Clear
52°F / 11°C 30°F / -1°C 44% 29.89 in
(1012 mb)
ENE 5.8 mph
(ENE 9 kph)
- 10SM
02:51
Partly Cloudy
57°F / 14°C 32°F / 0°C 39% 29.89 in
(1012 mb)
S 8.1 mph
(S 13 kph)
- 10SM
01:51
Clear
54°F / 12°C 28°F / -2°C 38% 29.89 in
(1012 mb)
SE 8.1 mph
(SE 13 kph)
- 10SM
00:51
Clear
55°F / 13°C 25°F / -4°C 31% 29.89 in
(1012 mb)
SE 8.1 mph
(SE 13 kph)
- 10SM
Time Weather Temperature Dewpoint Humidity Pressure Winds Precip Visibility


Weather for websites

WeatherForYou.com, LLC is not responsible for any damages or problems caused by this service. Current weather conditions are obtained from the closest station including government and personal stations which may have varying degrees of accuracy. Weather forecasts are derived from the NOAA NDFD. Like all things, this site belongs to Jesus Christ... He just trusts us to maintain it. If you have any questions or comments email webmaster@weatherforyou.com

Copyright © 2015, WeatherForYou.com LLC. All rights reserved.